Temp
61 62 61 60 60 60 61 61 61 60 60 60 60 60 60 61 61 60 59 59 59 60 60 61 61 61 83 86 88 98 76 86 101 98 95 93 91 88 82 80 82 77 75 78 79 79 79
60 61 61 60 60 60 61 60 60 59 59 59 59 59 59 59 60 60 59 59 59 59 60 61 61 59 84 78 97 98 97 99 99 99 93 95 91 90 80 76 79 77 77 76 77 75 75
61 61 61 60 59 59 59 59 59 59 59 59 59 59 59 59 59 59 59 59 58 59 60 61 61 79 81 85 97 100 97 97 97 96 92 93 93 88 82 74 80 78 72 74 74 75 70
61 61 61 60 59 59 58 58 59 59 59 59 59 59 58 58 58 58 58 58 58 59 60 61 62 82 81 95 100 97 99 96 98 98 94 94 94 86 82 81 77 75 75 69 72 73 71
61 60 61 60 59 58 58 58 58 59 59 59 59 58 58 57 57 57 57 58 58 59 60 62 77 82 81 89 91 96 97 93 95 94 93 92 90 81 81 77 72 72 70 69 67 75 70
61 60 60 60 59 58 58 58 58 58 58 58 58 58 58 57 57 56 56 57 64 63 72 80 85 77 87 84 89 91 97 95 91 89 87 86 85 79 80 78 70 69 69 70 69 72 70
59 60 60 61 59 59 59 59 58 57 57 58 58 58 58 57 57 56 64 84 83 78 81 80 80 79 83 90 90 91 93 91 91 88 80 83 78 74 76 80 76 77 74 71 75 75 70
58 58 59 59 59 59 59 59 58 57 57 58 58 58 57 57 56 56 69 72 67 66 68 79 79 79 83 86 81 88 93 84 83 79 80 77 74 82 82 75 75 75 71 70 68 71 70
57 57 58 58 58 58 58 58 57 57 57 57 57 57 57 56 56 65 72 69 73 71 67 75 79 80 82 85 81 84 89 85 80 77 78 76 77 80 77 73 72 72 71 69 69 68 70
57 56 57 57 57 57 58 58 58 57 57 57 57 56 56 55 61 71 71 72 73 72 66 72 75 80 82 85 78 89 89 85 79 76 77 77 77 75 74 73 75 69 74 70 67 66 63
56 56 56 56 57 56 57 57 57 58 57 57 56 56 57 56 67 73 69 72 72 68 52 71 74 86 82 80 81 80 87 84 77 75 75 72 71 71 71 73 75 70 71 70 69 68 63
56 56 56 56 56 56 56 57 56 56 56 56 56 56 57 65 69 70 73 70 69 61 50 66 74 73 74 78 78 81 82 85 81 75 76 72 77 76 75 71 73 71 69 68 67 67 58
55 55 55 55 56 56 56 57 56 55 56 56 56 56 60 69 69 70 71 70 60 51 68 64 67 71 74 72 73 76 75 74 73 66 67 70 71 74 75 69 71 72 68 61 57 56 57
55 55 55 55 56 56 56 56 55 55 55 54 52 55 60 70 71 69 70 66 50 58 61 69 68 69 67 71 72 73 72 71 74 74 73 66 61 71 74 72 70 69 70 61 50 55 59
55 54 55 55 55 56 56 56 55 54 53 52 56 66 67 67 68 69 68 55 57 59 63 63 68 64 65 69 69 70 71 72 76 76 67 65 65 70 70 72 73 66 62 70 59 55 55
55 54 55 55 55 55 55 55 54 53 54 55 66 65 65 66 67 68 63 54 59 63 64 65 60 65 61 65 65 66 68 73 73 77 79 72 61 67 68 72 70 69 73 59 62 50 49
54 54 54 55 55 55 55 54 53 53 56 55 64 61 63 66 66 66 56 59 60 66 65 63 62 61 62 62 65 65 66 71 72 71 75 75 69 63 67 66 69 65 65 64 65 61 53
53 53 54 55 55 54 55 53 53 54 54 57 61 56 64 66 59 62 56 59 54 64 68 65 65 64 61 62 62 63 63 67 69 71 68 72 69 62 65 68 71 72 68 66 58 55 57
52 53 53 54 54 54 54 54 53 54 55 64 60 58 65 63 53 55 56 59 61 62 64 63 61 63 64 61 58 61 63 67 67 67 67 70 65 58 59 63 66 64 67 68 66 61 57
52 53 53 54 53 53 54 54 54 55 54 63 61 50 55 60 61 58 55 55 56 63 62 64 63 65 62 60 62 58 61 66 66 66 53 62 66 62 58 64 68 60 64 67 64 58 59
52 53 53 53 52 52 53 54 54 54 55 62 62 54 58 48 53 56 58 57 55 55 63 65 63 62 62 56 58 59 62 64 68 58 64 65 59 63 66 64 63 64 64 64 62 64 57
52 53 52 53 53 53 53 53 53 53 56 61 55 56 58 56 57 55 50 54 55 58 60 59 59 63 62 58 60 57 62 63 62 65 62 63 58 58 58 60 61 59 64 65 64 65 63
52 52 52 52 53 53 53 53 52 53 56 60 62 61 61 48 54 51 53 55 56 59 59 63 62 61 60 61 63 64 64 65 64 61 59 58 58 55 52 56 57 53 61 63 63 64 63
52 52 52 53 53 53 53 52 52 53 54 64 63 64 57 48 55 54 53 56 56 58 57 60 62 61 62 68 69 66 64 63 63 61 62 58 56 55 52 53 39 62 62 62 63 62 63
52 52 52 53 53 52 52 52 52 52 53 61 62 62 61 50 57 53 54 55 57 59 57 58 62 66 69 65 59 55 55 57 61 62 62 60 57 51 43 48 58 63 59 59 57 58 64
51 52 52 52 52 52 51 52 53 52 53 57 60 61 61 53 52 56 55 56 56 56 55 58 65 66 65 62 56 39 44 53 55 57 63 61 59 53 44 40 43 57 61 63 62 55 61
50 51 52 52 51 51 51 51 52 52 53 56 58 59 61 52 56 55 56 56 57 57 58 57 58 60 62 57 51 48 48 57 50 52 53 55 56 49 49 44 53 61 63 63 51 54 60
50 50 51 51 51 51 51 51 51 52 53 59 58 59 59 55 55 55 56 55 56 59 56 56 57 57 58 52 53 51 50 56 53 57 53 52 47 46 47 45 42 62 61 54 58 59 59
50 50 50 50 50 50 50 51 51 52 52 55 56 60 62 58 54 57 59 60 61 61 60 58 54 54 59 55 57 57 50 54 53 47 58 49 56 53 51 50 60 62 60 62 62 59 58
MSLP
1020.61 1020.48 1020.43 1020.40 1020.32 1020.17 1020.12 1020.06 1019.98 1019.83 1019.66 1019.41 1019.11 1018.89 1018.53 1018.33 1017.88 1017.35 1016.83 1016.40 1015.85 1015.36 1014.88 1014.38 1013.87 1013.16 1011.71 1010.09 1008.38 1008.46 1008.80 1008.21 1007.60 1007.36 1007.07 1006.83 1006.84 1007.12 1007.54 1008.73 1009.31 1009.86 1011.15 1011.82 1012.58 1013.01 1013.56
1020.46 1020.26 1020.19 1020.17 1020.15 1020.05 1019.92 1019.93 1019.83 1019.68 1019.49 1019.30 1019.09 1018.84 1018.50 1018.12 1017.71 1017.22 1016.61 1016.09 1015.57 1014.99 1014.54 1014.17 1013.69 1013.22 1011.88 1009.68 1008.53 1008.56 1008.47 1007.93 1007.47 1007.01 1007.02 1006.89 1006.93 1007.77 1008.66 1009.72 1009.76 1010.91 1011.71 1012.64 1013.34 1013.89 1014.56
1020.13 1020.01 1019.95 1019.91 1019.93 1019.94 1019.84 1019.81 1019.72 1019.61 1019.39 1019.23 1019.01 1018.75 1018.41 1017.99 1017.51 1016.98 1016.34 1015.77 1015.10 1014.53 1014.11 1013.80 1013.39 1012.80 1011.22 1009.09 1008.58 1008.42 1008.36 1007.89 1007.87 1007.55 1007.31 1007.76 1007.91 1007.82 1009.29 1010.30 1011.46 1011.47 1012.09 1013.09 1013.72 1014.16 1014.80
1019.64 1019.69 1019.70 1019.65 1019.67 1019.69 1019.71 1019.68 1019.60 1019.44 1019.29 1019.14 1018.91 1018.68 1018.31 1017.89 1017.34 1016.76 1015.97 1015.28 1014.55 1014.01 1013.68 1013.46 1013.21 1012.16 1009.88 1008.89 1008.76 1008.38 1008.03 1007.91 1007.97 1007.91 1008.03 1008.37 1008.41 1008.83 1009.47 1010.94 1011.41 1011.18 1011.78 1012.09 1013.55 1014.24 1015.07
1019.09 1019.30 1019.37 1019.33 1019.41 1019.46 1019.53 1019.47 1019.42 1019.27 1019.15 1019.03 1018.84 1018.57 1018.17 1017.78 1017.22 1016.52 1015.61 1014.66 1013.86 1013.43 1013.31 1013.17 1012.75 1011.45 1009.06 1008.70 1008.53 1008.32 1008.20 1007.67 1007.98 1008.22 1008.47 1008.60 1008.53 1009.41 1010.36 1009.83 1010.35 1010.81 1010.10 1011.21 1012.85 1013.78 1014.52
1018.77 1019.04 1019.17 1019.10 1019.09 1019.18 1019.28 1019.30 1019.24 1019.15 1019.01 1018.90 1018.74 1018.46 1018.12 1017.62 1017.02 1016.33 1015.29 1013.71 1012.80 1012.90 1012.85 1012.35 1011.74 1011.14 1008.97 1008.49 1008.58 1008.49 1008.21 1008.05 1007.74 1008.08 1008.16 1008.10 1008.30 1008.83 1008.97 1008.62 1007.76 1008.84 1009.49 1010.52 1011.17 1012.57 1013.62
1018.82 1018.84 1018.98 1018.87 1018.88 1018.91 1018.94 1019.02 1018.97 1018.93 1018.83 1018.71 1018.55 1018.30 1017.94 1017.46 1016.91 1016.30 1014.94 1012.43 1012.67 1012.57 1011.76 1010.75 1010.26 1009.62 1008.92 1008.76 1008.75 1008.07 1008.15 1007.91 1007.76 1007.55 1007.18 1007.74 1007.56 1007.33 1007.80 1008.02 1008.44 1008.27 1008.76 1009.41 1010.28 1011.52 1012.64
1018.85 1018.82 1018.88 1018.86 1018.76 1018.69 1018.66 1018.68 1018.71 1018.71 1018.68 1018.59 1018.45 1018.23 1017.89 1017.40 1016.90 1016.18 1015.46 1014.23 1015.28 1015.74 1012.89 1010.70 1010.35 1009.84 1009.41 1009.21 1008.33 1007.82 1008.08 1007.70 1007.46 1006.88 1007.36 1007.81 1006.97 1006.79 1007.63 1008.71 1008.60 1008.55 1008.79 1009.48 1011.05 1011.74 1012.43
1018.74 1018.74 1018.77 1018.74 1018.61 1018.46 1018.39 1018.43 1018.49 1018.54 1018.55 1018.46 1018.34 1018.10 1017.79 1017.41 1016.83 1016.09 1015.40 1015.59 1015.79 1015.75 1013.69 1010.39 1009.63 1008.94 1008.61 1008.84 1007.89 1007.36 1007.64 1007.39 1007.17 1006.97 1007.01 1006.64 1007.04 1007.55 1008.00 1008.60 1008.62 1008.74 1008.90 1009.62 1010.28 1011.60 1012.25
1018.53 1018.52 1018.56 1018.50 1018.38 1018.27 1018.12 1018.21 1018.27 1018.35 1018.36 1018.30 1018.20 1017.96 1017.73 1017.39 1017.24 1016.16 1015.58 1015.91 1015.73 1015.71 1013.01 1009.94 1009.03 1008.21 1008.36 1008.14 1007.78 1007.61 1007.65 1007.46 1007.38 1006.97 1007.23 1007.18 1007.95 1007.99 1008.19 1008.21 1008.73 1008.63 1009.37 1009.95 1010.60 1011.00 1010.74
1018.25 1018.24 1018.29 1018.28 1018.15 1018.03 1017.87 1017.90 1018.06 1018.12 1018.15 1018.11 1018.07 1017.88 1017.67 1017.52 1016.76 1015.77 1016.14 1015.91 1015.78 1015.52 1011.92 1009.96 1008.71 1008.50 1008.09 1007.75 1007.60 1007.80 1008.05 1007.69 1007.15 1007.45 1007.90 1007.48 1008.23 1008.34 1008.36 1008.42 1009.05 1009.31 1010.19 1010.32 1010.55 1010.49 1010.92
1017.87 1017.91 1017.90 1017.89 1017.85 1017.70 1017.60 1017.58 1017.71 1017.88 1017.96 1017.97 1017.97 1017.82 1017.67 1017.27 1016.76 1016.38 1016.10 1015.87 1015.50 1014.20 1011.21 1009.48 1008.67 1008.08 1007.89 1007.67 1007.58 1007.75 1007.68 1007.83 1008.05 1007.81 1008.00 1008.32 1008.94 1008.83 1008.75 1009.73 1009.75 1010.46 1010.61 1010.72 1010.79 1010.53 1010.05
1017.55 1017.53 1017.52 1017.45 1017.42 1017.27 1017.21 1017.23 1017.41 1017.64 1017.74 1017.87 1017.87 1017.82 1017.76 1017.11 1016.32 1016.51 1015.94 1015.09 1014.21 1012.70 1011.00 1009.90 1008.91 1008.46 1007.77 1007.62 1007.66 1007.50 1007.41 1007.35 1006.99 1007.32 1007.46 1008.37 1008.65 1009.23 1009.47 1009.72 1010.47 1010.13 1009.94 1009.30 1009.32 1009.64 1009.09
1017.26 1017.12 1017.14 1017.09 1017.03 1016.93 1016.97 1017.05 1017.16 1017.40 1017.64 1017.82 1017.90 1017.85 1017.58 1016.95 1016.77 1016.53 1015.48 1014.28 1013.16 1012.23 1011.22 1010.43 1009.59 1008.93 1008.20 1008.05 1007.77 1007.77 1007.47 1006.98 1007.50 1007.23 1006.82 1007.34 1008.37 1008.94 1009.39 1009.26 1009.13 1009.58 1009.38 1009.02 1008.61 1008.64 1009.03
1016.93 1016.82 1016.71 1016.76 1016.68 1016.66 1016.77 1016.86 1016.99 1017.31 1017.63 1017.82 1017.80 1017.42 1017.00 1017.08 1016.96 1016.38 1014.92 1013.59 1012.52 1012.52 1012.03 1011.07 1009.73 1009.09 1008.65 1008.60 1008.51 1008.17 1007.74 1007.10 1006.85 1007.44 1007.15 1007.23 1007.81 1009.39 1009.77 1009.84 1009.78 1009.95 1009.89 1009.73 1009.73 1010.28 1009.70
1016.48 1016.49 1016.39 1016.46 1016.43 1016.48 1016.61 1016.74 1016.97 1017.30 1017.49 1017.57 1016.99 1016.84 1016.78 1017.32 1016.92 1015.95 1014.50 1013.49 1013.36 1013.20 1012.63 1011.70 1010.50 1010.09 1009.21 1008.98 1008.86 1008.60 1008.15 1007.93 1007.77 1007.77 1007.77 1007.45 1008.14 1009.38 1010.02 1010.09 1010.25 1009.77 1009.85 1010.09 1009.96 1009.22 1008.41
1016.08 1016.12 1016.09 1016.10 1016.20 1016.39 1016.57 1016.76 1017.02 1017.32 1017.39 1017.53 1016.84 1016.30 1017.40 1017.42 1016.89 1015.45 1014.03 1013.69 1013.78 1013.48 1013.11 1012.18 1011.49 1010.86 1010.52 1010.16 1009.78 1009.20 1008.85 1008.92 1009.04 1008.81 1008.62 1008.05 1008.31 1009.48 1010.03 1009.34 1008.62 1009.85 1009.47 1009.72 1009.61 1009.52 1008.71
1015.72 1015.76 1015.78 1015.79 1015.94 1016.27 1016.47 1016.75 1017.02 1017.23 1017.41 1017.58 1016.68 1016.05 1017.50 1017.36 1016.29 1015.53 1014.62 1014.46 1014.72 1013.59 1013.16 1012.75 1012.43 1011.87 1011.55 1011.29 1010.71 1010.30 1010.10 1010.17 1010.59 1010.02 1009.29 1009.18 1008.67 1008.32 1008.68 1009.39 1009.49 1008.95 1008.70 1009.13 1009.11 1009.12 1009.54
1015.28 1015.35 1015.47 1015.49 1015.68 1016.11 1016.43 1016.72 1016.97 1017.12 1017.18 1016.63 1015.98 1016.59 1017.34 1017.16 1015.51 1015.08 1015.34 1014.72 1014.45 1013.88 1013.39 1013.16 1012.88 1012.78 1012.50 1012.03 1011.75 1011.53 1011.41 1011.63 1011.51 1011.13 1010.51 1009.99 1009.30 1008.77 1008.85 1009.65 1009.70 1009.21 1008.83 1008.99 1009.15 1009.42 1008.84
1014.79 1014.92 1015.12 1015.23 1015.49 1016.01 1016.40 1016.68 1016.90 1017.07 1017.33 1017.02 1015.92 1016.20 1017.23 1016.96 1016.22 1015.07 1014.98 1014.82 1014.55 1014.48 1014.04 1013.74 1013.37 1013.22 1012.90 1012.69 1012.74 1012.41 1012.15 1011.95 1012.04 1011.78 1011.79 1011.34 1009.66 1008.90 1008.17 1007.92 1008.13 1008.73 1008.52 1008.68 1008.84 1008.48 1008.20
1014.29 1014.45 1014.74 1014.98 1015.40 1015.90 1016.33 1016.60 1016.89 1017.10 1017.49 1017.25 1015.99 1015.76 1015.73 1015.99 1016.06 1015.60 1015.28 1015.08 1014.58 1014.38 1014.37 1013.95 1013.29 1013.46 1013.17 1013.12 1012.93 1012.50 1012.51 1012.29 1011.99 1012.49 1012.10 1011.75 1010.39 1009.78 1009.16 1009.35 1009.16 1008.80 1008.56 1008.56 1008.47 1008.11 1008.25
1013.80 1014.07 1014.52 1014.89 1015.22 1015.51 1016.13 1016.47 1016.96 1017.17 1017.49 1016.91 1015.98 1015.83 1016.23 1015.84 1015.81 1015.87 1015.84 1015.28 1014.81 1014.57 1014.46 1013.85 1013.75 1013.55 1013.79 1013.66 1013.44 1012.98 1012.94 1012.80 1012.61 1012.48 1012.38 1012.33 1011.30 1010.97 1010.17 1010.12 1009.78 1009.19 1008.74 1008.70 1008.65 1008.53 1008.70
1013.31 1013.75 1014.28 1014.74 1015.09 1015.51 1015.84 1016.37 1016.95 1017.17 1017.35 1016.63 1016.74 1016.65 1015.76 1016.44 1015.94 1016.01 1015.60 1015.34 1015.09 1014.95 1014.95 1014.43 1014.18 1014.07 1013.97 1014.16 1014.24 1014.04 1013.85 1013.52 1013.39 1013.18 1012.81 1012.73 1012.24 1011.75 1010.65 1011.01 1010.42 1009.47 1008.57 1008.47 1008.60 1008.97 1009.33
1013.03 1013.51 1014.02 1014.60 1014.98 1015.48 1015.80 1016.29 1016.83 1017.19 1017.34 1016.63 1016.63 1016.36 1015.63 1015.95 1015.74 1015.70 1015.89 1015.79 1015.63 1015.45 1015.13 1015.04 1014.81 1014.43 1015.06 1014.91 1014.39 1014.20 1013.97 1013.74 1013.63 1013.54 1013.44 1013.21 1013.00 1012.85 1011.65 1011.72 1010.63 1008.85 1009.33 1009.21 1008.92 1009.48 1010.02
1012.80 1013.31 1013.81 1014.44 1014.94 1015.41 1015.83 1016.35 1016.88 1017.27 1017.50 1017.16 1017.13 1016.55 1015.81 1015.95 1015.89 1016.38 1016.29 1015.97 1016.01 1015.88 1015.82 1015.51 1015.29 1015.17 1015.23 1014.85 1014.15 1013.70 1013.72 1013.55 1013.08 1013.07 1013.01 1013.75 1013.86 1013.38 1013.00 1011.90 1010.20 1009.22 1009.78 1009.66 1009.39 1009.72 1010.46
1012.59 1013.08 1013.65 1014.28 1014.86 1015.36 1015.85 1016.41 1016.90 1017.31 1017.52 1017.57 1017.58 1017.49 1016.76 1016.37 1016.56 1016.72 1016.44 1016.37 1015.84 1015.74 1015.84 1015.69 1015.59 1015.78 1015.51 1014.89 1014.72 1014.32 1013.52 1012.94 1012.34 1012.68 1013.12 1013.17 1013.94 1014.27 1014.06 1012.97 1010.84 1010.60 1010.54 1010.61 1010.73 1010.44 1011.36
1012.33 1012.90 1013.52 1014.16 1014.74 1015.29 1015.85 1016.44 1016.86 1017.34 1017.74 1017.81 1017.92 1017.99 1017.36 1017.05 1017.44 1017.59 1016.86 1016.61 1016.75 1016.33 1015.94 1016.13 1015.98 1015.83 1015.79 1014.95 1014.74 1014.52 1013.92 1013.68 1012.99 1012.56 1012.52 1012.54 1013.04 1013.86 1013.90 1013.65 1012.09 1012.17 1012.29 1011.84 1011.71 1012.29 1012.61
1012.25 1012.83 1013.44 1014.05 1014.64 1015.22 1015.80 1016.41 1016.88 1017.33 1017.76 1017.61 1018.05 1018.29 1017.78 1017.51 1017.98 1018.23 1017.88 1017.41 1017.28 1016.91 1016.46 1016.90 1016.52 1016.29 1015.98 1015.34 1014.80 1014.68 1014.22 1013.59 1013.50 1013.15 1013.10 1013.19 1013.57 1013.77 1013.98 1013.90 1013.53 1013.35 1013.55 1013.68 1013.90 1013.35 1013.56
1012.10 1012.76 1013.41 1013.97 1014.60 1015.19 1015.74 1016.30 1016.95 1017.35 1017.78 1017.86 1017.96 1018.46 1018.20 1017.91 1018.58 1018.77 1018.46 1018.44 1018.08 1017.78 1017.47 1017.34 1017.30 1017.00 1016.68 1016.07 1015.64 1015.14 1014.65 1014.24 1013.86 1013.66 1014.15 1013.97 1014.19 1014.29 1014.45 1013.97 1013.63 1014.36 1014.82 1014.63 1014.62 1014.67 1014.99
Wind_Speed
10 10 7 8 8 8 8 7 7 8 8 9 10 10 11 12 13 15 15 16 16 17 17 17 18 17 10 6 2 4 8 5 2 3 2 4 8 5 8 8 10 14 10 10 10 11 12
11 11 8 7 7 8 8 7 8 8 8 9 10 11 11 12 13 15 16 17 17 17 17 16 15 15 5 8 3 4 8 4 3 10 3 3 5 11 12 6 5 10 14 14 12 12 10
11 12 11 7 6 7 8 7 7 8 9 9 9 10 11 12 14 16 17 18 19 18 17 15 10 5 5 8 3 8 5 3 3 3 8 8 7 1 9 13 14 19 16 13 10 9 5
13 13 11 8 6 6 7 8 7 8 9 9 9 10 11 12 14 16 18 19 21 19 16 7 3 4 7 1 8 8 3 4 5 9 15 12 14 13 6 19 9 10 9 10 10 10 6
11 9 10 9 7 6 7 8 7 8 8 9 10 11 11 12 13 17 19 23 23 13 8 5 4 5 4 3 5 2 4 3 9 9 9 7 7 9 15 15 10 7 7 9 11 13 7
6 8 10 9 8 7 6 8 8 8 8 9 10 10 10 12 14 16 21 22 11 6 5 4 2 6 5 1 4 5 1 3 4 13 8 4 5 8 11 12 7 11 9 11 13 17 15
6 6 9 10 6 8 9 9 8 8 9 9 10 10 11 12 13 16 15 5 5 6 5 6 2 4 2 4 3 5 1 5 7 11 9 8 9 12 17 15 5 3 8 9 9 7 15
5 5 6 8 10 11 11 10 8 8 8 9 9 9 10 11 13 17 8 5 4 4 8 6 10 10 8 4 4 6 4 7 9 12 7 7 13 8 8 5 6 7 7 6 4 5 13
6 6 8 10 11 12 11 11 9 8 9 9 9 7 9 11 13 7 5 7 5 6 6 4 6 7 4 10 5 6 7 3 8 10 14 12 3 6 13 11 9 7 8 4 6 7 11
7 7 8 11 11 12 11 12 12 8 9 8 7 6 8 12 4 3 3 6 4 6 5 6 6 4 7 5 6 1 2 3 5 10 8 9 5 12 13 15 13 12 5 5 8 10 5
6 7 8 9 11 11 14 10 11 11 8 8 6 5 6 7 6 2 5 9 1 4 5 4 4 3 4 9 4 5 1 5 6 5 6 4 8 11 11 7 10 1 4 4 7 8 5
7 7 8 9 10 12 11 11 9 9 8 6 5 4 5 5 3 4 9 5 4 5 5 1 0 4 8 10 3 5 5 3 2 4 1 4 1 3 2 6 3 14 8 6 5 5 9
8 8 9 10 9 10 10 9 9 9 8 6 4 3 5 2 2 7 9 4 5 5 2 4 2 1 9 8 8 6 10 10 9 8 9 5 6 4 7 10 9 7 9 6 7 6 4
8 8 9 9 10 9 8 9 9 9 7 5 4 4 2 3 7 8 4 4 6 1 4 5 4 2 6 5 6 7 7 10 8 8 3 10 8 11 8 5 8 15 9 6 7 5 1
10 9 9 9 9 7 8 9 9 8 9 8 8 3 2 2 5 5 5 7 1 1 4 7 4 3 4 4 3 7 11 12 7 12 9 6 4 4 1 3 3 7 9 5 6 1 6
10 10 9 8 8 7 8 9 9 11 10 10 4 4 3 6 4 5 5 4 2 1 5 3 3 6 4 2 5 4 6 1 11 10 7 4 5 3 5 4 3 6 9 5 5 6 8
9 11 10 8 7 8 9 9 11 12 10 7 4 5 4 5 4 4 7 6 3 1 4 5 4 1 4 5 5 3 1 2 3 3 7 7 7 7 5 11 11 7 9 5 5 5 6
9 10 11 9 8 10 10 11 11 10 8 5 3 4 3 3 6 2 7 4 0 2 2 4 2 7 5 5 3 3 5 6 9 6 5 3 5 10 11 2 5 9 12 14 8 7 3
10 11 12 9 10 11 11 11 11 10 11 4 4 4 3 4 7 7 3 6 1 2 2 2 2 6 4 5 1 4 7 5 6 4 4 3 6 11 6 5 5 8 13 13 8 2 9
10 12 12 10 12 12 12 12 11 12 4 4 3 5 3 3 2 7 10 8 9 4 5 3 4 2 2 2 3 3 7 6 7 3 4 3 7 12 13 11 3 6 13 16 15 9 10
11 13 12 11 14 14 15 14 12 9 6 4 1 2 2 7 8 6 9 7 9 7 10 5 7 7 8 5 8 3 5 12 5 2 1 3 8 7 8 6 5 7 9 14 18 19 10
13 13 11 12 14 15 14 12 11 10 7 3 3 3 3 3 9 10 6 9 10 11 12 7 10 6 6 8 11 15 13 7 5 2 2 2 7 3 6 4 6 10 10 11 16 15 14
14 14 13 13 14 13 13 13 12 11 9 2 2 1 4 2 8 9 9 9 12 6 3 4 2 6 6 4 5 6 7 7 5 5 4 3 4 4 13 3 4 10 15 15 9 9 11
14 14 14 14 13 13 13 13 11 10 2 1 2 1 3 5 7 6 3 13 9 7 10 2 4 2 5 4 11 6 2 2 4 3 2 6 5 3 7 3 4 4 2 6 14 6 7
14 15 15 14 13 13 13 14 11 9 2 1 1 3 1 5 5 6 6 6 8 9 11 10 10 9 7 7 4 3 4 5 6 4 7 2 2 4 3 5 11 12 6 6 9 8 9
14 15 15 15 13 13 13 14 14 13 4 3 2 3 2 4 4 4 6 2 4 4 5 4 5 2 3 4 2 1 3 5 4 7 4 10 5 4 2 5 7 8 1 2 3 3 9
13 15 16 15 14 14 14 14 13 11 7 2 3 4 3 2 3 2 2 2 1 2 1 1 3 3 4 5 7 4 6 2 6 7 5 5 3 2 6 6 7 9 7 4 6 5 7
14 14 15 14 13 14 15 16 14 12 10 4 3 1 2 1 4 4 2 3 3 0 1 4 4 3 3 5 4 5 5 4 4 5 5 5 3 2 2 3 7 9 4 8 8 2 7
15 14 14 14 13 13 13 17 15 14 11 3 4 1 2 2 4 3 4 5 6 3 3 0 4 4 3 4 1 3 3 3 2 5 1 5 5 3 7 2 2 5 6 6 6 4 4
Wind_Direction
291 280 284 291 299 306 305 303 301 307 316 324 325 323 326 327 327 322 321 319 318 318 318 321 321 324 320 249 239 72 317 291 251 263 281 191 200 165 121 111 91 103 105 104 124 133 122
278 280 274 269 289 298 302 305 301 301 308 316 321 321 320 322 321 319 318 315 312 311 312 315 315 312 292 256 27 340 322 286 42 51 103 213 136 106 88 73 7 119 115 119 136 127 139
258 267 270 255 269 287 298 301 297 294 299 306 314 319 319 318 318 316 315 311 308 306 307 310 305 286 261 265 333 317 293 351 20 8 92 85 107 250 117 97 119 121 115 124 141 147 138
259 255 257 264 261 277 289 293 294 292 295 300 309 314 318 316 314 313 312 307 304 302 305 295 286 239 274 219 322 281 220 133 100 80 97 95 99 87 94 126 134 131 154 165 168 180 149
244 236 253 254 254 267 280 287 292 295 295 298 304 310 318 314 312 311 310 304 299 293 289 244 215 245 265 290 237 339 294 152 122 120 99 118 79 99 146 142 139 200 188 212 173 204 165
206 223 252 264 259 269 277 281 287 292 295 294 297 307 313 314 313 313 312 294 289 281 211 226 255 245 218 90 333 322 247 221 155 145 148 149 121 151 176 199 222 185 200 198 199 190 208
300 225 250 260 263 278 284 284 284 290 291 291 295 307 311 314 315 314 322 310 258 196 243 280 68 301 287 333 201 194 175 183 163 195 191 186 191 204 191 214 331 230 214 198 198 158 203
301 291 286 285 281 279 283 283 283 284 285 286 292 302 307 313 316 312 288 54 43 338 302 240 253 263 264 300 259 200 201 218 205 209 165 185 228 219 193 189 209 196 195 196 125 175 214
267 273 273 280 278 277 279 280 279 272 276 280 286 299 309 314 316 299 26 56 336 180 262 250 228 247 222 193 225 202 208 200 221 208 207 231 75 165 173 182 184 206 233 193 305 163 213
253 262 267 277 278 275 276 273 273 261 264 272 279 300 316 312 298 343 95 349 341 214 268 173 196 194 178 213 223 209 207 263 194 237 211 241 134 181 193 213 218 240 199 223 172 192 280
271 261 268 270 273 268 271 261 259 253 251 258 267 290 317 354 329 256 11 333 121 228 248 66 141 60 156 203 114 143 118 198 236 164 225 130 178 186 201 212 198 332 144 169 194 231 265
257 267 271 276 274 272 264 254 245 235 234 234 241 268 294 209 245 1 326 316 212 230 238 88 76 178 171 196 160 129 173 114 59 164 163 61 91 229 54 87 228 139 131 132 187 241 250
250 256 270 280 281 272 261 242 221 219 211 210 212 245 261 310 12 328 312 214 193 244 11 18 355 287 214 184 193 208 188 189 206 198 200 169 165 133 169 118 139 202 197 246 223 207 285
255 251 263 280 280 263 242 215 204 196 180 162 149 213 155 284 315 311 273 195 217 77 286 351 328 265 218 181 212 200 209 209 211 230 234 217 194 181 167 245 209 207 237 254 278 258 345
256 256 256 276 277 243 218 200 181 161 151 157 175 169 213 38 309 283 231 207 223 23 346 329 302 255 190 196 311 225 235 245 236 211 232 214 203 139 178 178 244 164 220 350 274 196 260
256 262 248 262 261 216 197 178 153 153 161 183 175 186 108 329 297 257 210 188 165 21 333 298 333 9 21 40 224 207 200 21 236 223 239 211 227 208 132 175 115 264 129 188 214 261 259
249 266 246 244 226 196 182 160 149 163 175 193 196 187 49 301 260 208 206 178 174 63 353 7 23 47 51 15 320 253 334 119 341 218 251 216 243 137 178 209 212 171 205 225 287 276 279
246 259 241 224 200 188 174 157 156 172 152 207 173 177 33 273 179 232 197 183 59 205 5 36 57 41 42 10 340 310 329 351 359 300 227 194 272 233 221 84 297 267 246 212 237 206 243
247 241 230 208 187 173 171 163 162 168 197 168 136 83 94 283 194 188 144 176 258 217 216 9 113 21 18 31 226 28 358 16 359 308 336 185 224 242 202 188 191 232 214 226 247 264 223
249 222 216 191 163 163 177 174 177 181 164 278 182 131 118 243 11 188 177 188 207 210 275 278 294 285 312 334 13 347 2 360 322 275 13 290 259 255 264 312 23 208 216 216 219 238 241
238 204 197 181 161 165 176 179 180 182 160 270 244 122 104 177 194 180 191 180 187 204 220 237 229 252 277 275 304 275 324 339 350 33 298 278 269 264 267 273 258 274 252 218 220 232 226
211 187 187 173 166 160 163 166 165 152 147 255 154 160 180 114 162 180 176 191 197 222 240 215 239 238 271 275 270 291 308 301 321 12 317 304 271 304 272 266 272 260 252 245 236 250 254
184 178 180 173 166 163 155 165 154 160 199 182 110 120 274 171 160 179 207 197 203 148 180 243 269 246 233 357 348 336 296 290 303 310 318 281 290 261 270 301 284 263 240 227 223 225 240
174 172 174 167 166 162 154 156 168 172 322 326 75 221 188 139 180 172 197 203 201 201 234 117 298 279 51 284 291 253 277 256 202 112 223 298 302 275 287 236 245 305 38 304 232 231 198
172 168 169 170 163 161 158 156 166 148 144 67 94 296 159 133 150 160 171 153 204 240 253 268 277 291 308 297 310 282 211 213 181 109 85 151 322 289 258 237 288 266 209 187 180 217 187
171 162 164 169 166 164 161 158 165 168 98 101 70 320 333 155 172 117 143 132 151 157 166 224 279 284 268 259 267 250 260 329 229 146 146 116 152 234 5 283 256 23 84 245 269 220 154
163 158 161 168 167 166 165 161 164 161 163 109 98 5 246 124 127 235 196 164 86 114 27 318 359 198 235 218 231 233 244 281 260 259 230 259 187 262 296 268 302 6 342 308 232 39 148
156 156 158 163 167 163 165 163 157 153 163 178 94 39 338 138 142 227 165 129 133 149 235 52 226 178 217 222 225 214 233 209 254 291 291 242 212 179 152 249 255 9 279 341 348 71 141
151 152 154 159 161 161 159 160 156 157 168 197 125 118 4 350 51 343 306 293 317 343 299 139 9 318 16 286 304 317 203 193 247 270 238 237 256 260 203 199 355 344 291 337 343 356 48